Location: Walsall
(52.5862°N, 1.9829°W)
Time: 01:33:34
(UTC+01:00)

X-37B - Pass Details

Date: 25 June 2021
Orbit: 383 x 392 km, 45.0° (Epoch: 01 July)

Event Time Altitude Azimuth Distance (km) Brightness Sun altitude
Rises 22:44:40 0° 234° (SW) 2,253 4.4 -7.7°
Reaches altitude 10° 22:47:08 10° 214° (SW) 1,401 3.2 -7.9°
Maximum altitude 22:49:22 18° 169° (S) 1,020 2.1 -8.0°
Drops below altitude 10° 22:51:37 10° 123° (ESE) 1,402 2.8 -8.2°
Enters shadow 22:51:45 - 122° (ESE) 1,442 2.9 -8.2°
